Simultaneous Nadir Overpasses (SNOs) Predictions

Prediction of SNOs between GOES-15 and NPP Satellite Orbit:

Table of predicted SNOs for the next 14.0 days since TLE Epoch: 12/1/2024
Index Date Time (GOES-15) GOES-15 Lat,Lon NPP Lat,Lon Distance(km) Time Diff (sec)
1 12/02/2024 21:20:23 0.02, 61.49 -0.00, 61.46 3.54 80
2 12/05/2024 09:21:01 -0.01, 61.55 -0.18, 60.67 99.30 80
3 12/06/2024 09:04:58 -0.02, 61.54 0.83, 65.19 417.23 80
4 12/07/2024 21:26:49 -0.01, 61.46 0.37, 59.92 176.67 80
5 12/08/2024 21:05:26 0.01, 61.46 -0.65, 64.44 338.97 80
6 12/10/2024 09:27:26 0.01, 61.54 -0.51, 59.12 275.40 80
7 12/11/2024 09:11:23 0.00, 61.54 0.45, 63.65 240.83 80
8 12/12/2024 21:33:14 -0.02, 61.45 0.67, 58.36 352.12 80
9 12/13/2024 21:11:51 -0.00, 61.46 -0.30, 62.90 162.97 80
